Temp
18 18 18 18 19 19 19 18 19 19 19 19 19 19 19 20 21 21 21 21 21 21 21 21 21 21 22 21 21 21 21 21 21 22 21 22 22 23 22 22 23 23
18 19 19 19 19 19 19 19 19 19 19 19 19 20 20 20 21 21 20 20 21 20 21 21 21 21 21 21 21 20 20 20 19 22 21 20 21 22 22 22 22 23
18 18 18 17 17 18 18 19 19 19 19 19 20 20 20 21 20 20 20 20 20 20 20 20 20 20 20 20 20 20 20 19 19 20 20 19 20 20 21 21 21 21
17 18 18 18 18 18 18 18 19 19 19 19 19 20 20 20 20 20 20 20 20 20 20 20 20 20 20 20 19 19 19 19 20 20 19 19 19 20 20 21 21 21
17 17 18 18 18 18 18 18 18 18 18 19 19 19 19 19 19 19 19 19 19 19 18 19 19 19 20 20 20 19 19 19 20 20 19 18 19 19 19 19 18 18
17 17 18 17 18 17 17 17 18 18 18 18 18 19 19 19 18 18 18 18 19 19 19 18 19 19 19 19 19 19 19 19 19 19 18 18 18 19 19 18 17 17
16 16 16 17 17 17 17 17 18 19 18 18 18 17 18 18 17 18 18 18 19 19 19 19 19 19 20 20 19 19 19 19 19 18 18 18 18 18 18 17 17 16
15 16 16 15 15 16 16 17 17 16 17 17 16 17 17 17 17 17 18 18 18 18 18 19 19 19 19 19 17 17 17 18 18 17 17 17 17 16 17 17 16 16
15 15 15 14 15 15 15 16 16 16 16 15 15 15 17 16 16 17 17 17 17 17 18 18 18 18 19 18 17 16 16 16 17 17 16 16 15 15 16 16 15 15
14 14 14 14 13 14 15 15 15 15 15 15 15 15 14 15 16 16 17 16 16 16 17 17 17 18 18 18 18 17 16 16 15 15 15 15 15 14 15 15 15 15
13 13 13 13 14 14 14 15 14 14 15 14 13 13 14 14 15 16 15 15 15 15 16 16 17 17 17 18 18 18 18 17 16 15 14 14 15 15 16 15 15 15
12 12 12 13 13 13 14 14 14 13 13 13 13 12 13 13 13 14 14 14 15 15 16 16 16 17 17 17 17 18 18 17 16 16 16 15 14 14 14 15 14 14
11 11 12 12 13 13 13 13 12 12 12 12 12 12 11 11 12 13 14 14 14 15 15 15 15 16 16 17 17 17 16 15 16 16 16 16 15 15 15 15 15 15
11 12 12 12 12 12 12 12 12 11 11 11 11 10 10 10 11 12 13 14 14 14 14 15 15 15 16 16 16 16 16 16 16 15 16 16 16 16 16 15 15 15
11 12 12 12 12 11 11 11 10 10 10 10 10 9 10 11 11 12 12 12 13 13 14 14 14 15 15 16 16 16 16 16 16 16 16 16 16 16 16 16 16 16
11 11 11 11 10 10 10 9 9 9 9 8 9 9 9 9 10 10 11 11 11 12 13 14 14 15 18 21 22 19 17 17 17 17 17 16 16 16 16 17 17 17
10 10 10 9 9 9 9 8 8 8 7 7 8 8 8 8 9 8 9 10 11 11 12 13 14 16 20 22 24 25 23 21 18 17 17 17 17 16 16 16 17 18
9 9 8 8 8 7 7 7 7 6 6 6 6 6 7 8 7 7 8 10 11 12 13 14 15 19 22 23 25 26 26 24 22 21 19 17 17 17 17 17 17 17
8 8 7 6 6 6 6 6 5 5 4 5 5 6 7 6 7 8 8 10 11 12 13 14 14 20 23 24 25 27 28 27 24 23 22 20 18 18 18 18 18 18
7 6 5 5 5 5 5 4 3 3 4 5 5 6 6 6 7 7 8 9 11 12 13 14 14 19 23 25 26 27 28 28 25 25 24 23 21 20 19 19 19 18
6 4 3 4 4 3 3 2 2 3 4 4 5 5 6 6 7 7 8 9 11 13 13 14 15 22 24 26 27 28 29 29 26 26 25 25 24 23 21 20 20 20
4 3 2 2 2 2 1 2 2 3 3 4 5 6 7 8 9 9 8 9 11 12 13 14 16 23 25 27 28 29 29 27 26 26 25 25 25 25 23 22 22 21
3 2 1 1 1 1 1 1 2 2 3 5 5 6 7 7 8 8 10 10 11 13 14 15 17 21 25 27 28 30 29 27 26 26 25 25 25 26 25 24 23 22
2 1 -0 0 0 -0 0 1 2 3 4 5 5 5 5 7 8 8 10 11 12 13 15 15 17 21 25 27 29 30 30 27 27 25 24 24 24 25 25 25 25 26
1 1 0 -0 -0 -0 -0 -0 1 2 4 5 6 6 6 7 8 8 10 12 13 14 17 17 18 20 25 28 29 30 29 27 25 23 24 24 24 24 25 26 26 27
1 0 -0 -1 -1 -1 -0 -0 1 3 4 5 5 6 6 7 8 9 9 10 12 14 16 18 19 21 24 27 29 30 30 28 27 24 23 24 24 25 25 25 26 26
MSLP
1031.42 1031.26 1031.06 1030.70 1030.46 1030.26 1030.10 1030.02 1029.86 1029.70 1029.50 1029.34 1029.18 1028.90 1028.78 1028.54 1028.38 1028.22 1028.02 1027.86 1027.70 1027.54 1027.42 1027.30 1027.18 1027.06 1026.90 1026.78 1026.70 1026.58 1026.46 1026.42 1026.34 1026.26 1026.14 1025.98 1025.78 1025.66 1025.46 1025.30 1025.14 1024.94
1031.26 1031.06 1030.74 1030.54 1030.38 1030.18 1030.02 1029.86 1029.66 1029.50 1029.26 1029.10 1028.86 1028.66 1028.46 1028.30 1028.14 1028.02 1027.86 1027.70 1027.50 1027.34 1027.22 1027.06 1026.90 1026.74 1026.66 1026.54 1026.46 1026.38 1026.30 1026.18 1026.10 1026.02 1025.90 1025.82 1025.70 1025.50 1025.34 1025.22 1025.10 1024.78
1031.10 1030.86 1030.70 1030.54 1030.34 1030.10 1029.86 1029.66 1029.46 1029.22 1029.02 1028.78 1028.62 1028.42 1028.22 1028.02 1027.86 1027.74 1027.62 1027.42 1027.18 1026.98 1026.86 1026.70 1026.58 1026.46 1026.38 1026.26 1026.14 1026.06 1025.90 1025.82 1025.78 1025.70 1025.66 1025.54 1025.46 1025.42 1025.22 1025.10 1024.94 1024.82
1030.86 1030.70 1030.54 1030.34 1030.14 1029.94 1029.70 1029.46 1029.18 1028.98 1028.74 1028.54 1028.38 1028.18 1027.98 1027.74 1027.58 1027.42 1027.26 1027.14 1026.94 1026.74 1026.58 1026.46 1026.30 1026.22 1026.06 1025.94 1025.86 1025.70 1025.58 1025.46 1025.38 1025.34 1025.26 1025.14 1025.06 1024.98 1024.86 1024.78 1024.62 1024.50
1030.70 1030.50 1030.34 1030.14 1029.90 1029.70 1029.50 1029.26 1028.98 1028.74 1028.58 1028.34 1028.10 1027.90 1027.74 1027.54 1027.38 1027.18 1027.02 1026.82 1026.66 1026.42 1026.26 1026.06 1025.94 1025.82 1025.70 1025.58 1025.46 1025.34 1025.22 1025.10 1024.98 1024.98 1024.86 1024.78 1024.70 1024.66 1024.46 1024.42 1024.34 1024.30
1030.46 1030.30 1030.10 1029.90 1029.78 1029.58 1029.30 1029.02 1028.74 1028.50 1028.26 1028.02 1027.86 1027.70 1027.54 1027.38 1027.18 1026.98 1026.74 1026.54 1026.30 1026.10 1025.90 1025.74 1025.58 1025.42 1025.30 1025.18 1025.06 1024.94 1024.86 1024.74 1024.62 1024.62 1024.54 1024.46 1024.38 1024.26 1024.22 1024.10 1023.98 1023.86
1030.30 1030.14 1029.98 1029.82 1029.58 1029.34 1029.06 1028.78 1028.50 1028.18 1028.02 1027.86 1027.70 1027.54 1027.38 1027.18 1026.98 1026.78 1026.50 1026.26 1026.06 1025.82 1025.62 1025.42 1025.22 1025.06 1024.90 1024.78 1024.62 1024.50 1024.42 1024.30 1024.26 1024.22 1024.14 1024.06 1024.02 1023.98 1023.98 1023.94 1023.90 1023.74
1030.14 1029.98 1029.82 1029.62 1029.38 1029.10 1028.82 1028.50 1028.22 1028.06 1027.90 1027.70 1027.54 1027.34 1027.22 1026.98 1026.78 1026.54 1026.30 1026.10 1025.86 1025.58 1025.38 1025.18 1024.94 1024.78 1024.62 1024.46 1024.34 1024.26 1024.10 1024.06 1023.98 1023.94 1023.86 1023.74 1023.70 1023.66 1023.66 1023.62 1023.58 1023.50
1029.98 1029.82 1029.66 1029.42 1029.14 1028.82 1028.50 1028.22 1028.02 1027.86 1027.70 1027.54 1027.38 1027.18 1026.98 1026.82 1026.58 1026.34 1026.10 1025.86 1025.58 1025.34 1025.10 1024.86 1024.62 1024.42 1024.18 1024.06 1023.94 1023.90 1023.78 1023.70 1023.58 1023.54 1023.46 1023.42 1023.38 1023.30 1023.30 1023.30 1023.26 1023.18
1029.86 1029.66 1029.46 1029.22 1028.94 1028.54 1028.26 1028.02 1027.86 1027.70 1027.54 1027.38 1027.18 1027.02 1026.82 1026.58 1026.38 1026.10 1025.86 1025.62 1025.34 1025.06 1024.82 1024.54 1024.34 1024.06 1023.82 1023.66 1023.50 1023.38 1023.34 1023.26 1023.22 1023.18 1023.10 1023.06 1023.02 1022.94 1022.94 1022.98 1022.94 1022.90
1029.62 1029.46 1029.22 1028.98 1028.62 1028.34 1028.06 1027.86 1027.66 1027.50 1027.34 1027.22 1027.06 1026.86 1026.62 1026.38 1026.10 1025.94 1025.66 1025.38 1025.10 1024.78 1024.50 1024.22 1023.94 1023.74 1023.46 1023.26 1023.06 1022.90 1022.78 1022.66 1022.62 1022.66 1022.62 1022.58 1022.54 1022.50 1022.46 1022.50 1022.50 1022.50
1029.38 1029.22 1028.98 1028.70 1028.42 1028.18 1027.94 1027.70 1027.50 1027.34 1027.18 1027.02 1026.90 1026.62 1026.38 1026.22 1025.98 1025.70 1025.42 1025.06 1024.78 1024.46 1024.18 1023.90 1023.62 1023.38 1023.14 1022.90 1022.66 1022.50 1022.34 1022.22 1022.14 1022.14 1022.06 1022.06 1022.02 1022.02 1021.98 1021.98 1022.02 1021.98
1029.18 1028.98 1028.74 1028.46 1028.22 1028.02 1027.78 1027.54 1027.38 1027.22 1027.06 1026.90 1026.66 1026.50 1026.26 1025.98 1025.78 1025.46 1025.06 1024.78 1024.38 1024.14 1023.90 1023.58 1023.30 1022.98 1022.70 1022.42 1022.22 1022.06 1021.94 1021.82 1021.74 1021.66 1021.58 1021.50 1021.46 1021.46 1021.42 1021.46 1021.46 1021.42
1028.86 1028.62 1028.38 1028.18 1027.98 1027.78 1027.58 1027.42 1027.22 1027.06 1026.90 1026.66 1026.50 1026.26 1026.06 1025.82 1025.54 1025.18 1024.78 1024.50 1024.14 1023.86 1023.50 1023.22 1022.86 1022.54 1022.22 1021.98 1021.70 1021.50 1021.34 1021.26 1021.18 1021.14 1021.06 1020.98 1020.90 1020.82 1020.82 1020.82 1020.82 1020.82
1028.42 1028.22 1028.06 1027.94 1027.78 1027.58 1027.46 1027.30 1027.14 1026.94 1026.70 1026.50 1026.30 1026.06 1025.78 1025.54 1025.30 1025.02 1024.58 1024.14 1023.82 1023.54 1023.14 1022.78 1022.42 1021.98 1021.70 1021.42 1021.14 1020.82 1020.74 1020.66 1020.58 1020.50 1020.50 1020.42 1020.34 1020.26 1020.22 1020.22 1020.18 1020.10
1028.10 1027.98 1027.86 1027.70 1027.54 1027.46 1027.34 1027.18 1026.98 1026.78 1026.58 1026.34 1026.14 1025.86 1025.58 1025.26 1025.02 1024.70 1024.42 1023.98 1023.50 1023.06 1022.74 1022.34 1021.90 1021.42 1021.02 1020.54 1020.18 1019.98 1019.94 1019.90 1019.78 1019.70 1019.70 1019.70 1019.66 1019.58 1019.50 1019.46 1019.38 1019.38
1027.90 1027.74 1027.58 1027.50 1027.42 1027.34 1027.18 1027.02 1026.78 1026.62 1026.42 1026.14 1025.86 1025.62 1025.34 1025.02 1024.70 1024.38 1024.02 1023.66 1023.18 1022.70 1022.18 1021.74 1021.30 1020.82 1020.22 1019.70 1019.22 1018.90 1018.74 1018.66 1018.78 1018.86 1018.78 1018.78 1018.86 1018.86 1018.74 1018.62 1018.54 1018.50
1027.70 1027.50 1027.42 1027.38 1027.34 1027.18 1027.02 1026.86 1026.66 1026.46 1026.22 1025.94 1025.62 1025.26 1024.94 1024.66 1024.34 1023.98 1023.58 1023.18 1022.66 1022.18 1021.66 1021.06 1020.54 1020.02 1019.50 1018.94 1018.46 1018.06 1017.78 1017.62 1017.54 1017.58 1017.74 1017.86 1017.90 1017.94 1017.86 1017.82 1017.74 1017.74
1027.50 1027.34 1027.26 1027.26 1027.18 1027.06 1026.90 1026.70 1026.54 1026.30 1026.02 1025.74 1025.38 1024.98 1024.62 1024.26 1023.90 1023.50 1023.06 1022.70 1022.30 1021.74 1021.10 1020.50 1019.94 1019.30 1018.82 1018.26 1017.74 1017.30 1016.86 1016.66 1016.62 1016.54 1016.58 1016.70 1016.94 1016.98 1016.90 1016.90 1016.90 1016.94
1027.34 1027.22 1027.18 1027.10 1027.02 1026.90 1026.78 1026.58 1026.38 1026.10 1025.74 1025.42 1025.02 1024.62 1024.30 1023.86 1023.46 1023.10 1022.62 1022.26 1021.78 1021.26 1020.62 1019.98 1019.42 1018.74 1018.18 1017.58 1017.02 1016.50 1016.10 1015.82 1015.70 1015.58 1015.54 1015.50 1015.62 1015.86 1015.98 1016.02 1016.06 1016.14
1027.30 1027.18 1027.10 1026.98 1026.90 1026.82 1026.62 1026.38 1026.10 1025.74 1025.42 1025.10 1024.78 1024.34 1023.90 1023.50 1023.06 1022.62 1022.22 1021.78 1021.30 1020.82 1020.22 1019.42 1018.78 1018.06 1017.50 1016.86 1016.30 1015.82 1015.38 1015.02 1014.90 1014.78 1014.66 1014.58 1014.58 1014.70 1014.94 1015.06 1015.10 1015.22
1027.18 1027.06 1026.94 1026.90 1026.82 1026.62 1026.42 1026.10 1025.82 1025.58 1025.18 1024.78 1024.42 1023.94 1023.50 1023.02 1022.58 1022.22 1021.78 1021.34 1020.90 1020.42 1019.82 1019.02 1018.14 1017.42 1016.82 1016.18 1015.62 1015.14 1014.70 1014.42 1014.22 1014.06 1013.94 1013.82 1013.74 1013.78 1013.94 1014.06 1014.22 1014.38
1027.06 1026.98 1026.90 1026.78 1026.58 1026.38 1026.14 1025.94 1025.62 1025.26 1024.86 1024.50 1024.10 1023.70 1023.26 1022.86 1022.42 1021.94 1021.42 1020.94 1020.38 1019.86 1019.34 1018.50 1017.70 1016.94 1016.34 1015.62 1015.06 1014.46 1013.98 1013.66 1013.42 1013.26 1013.10 1013.10 1013.02 1013.06 1013.10 1013.18 1013.34 1013.42
1026.90 1026.86 1026.78 1026.54 1026.34 1026.18 1025.98 1025.70 1025.42 1025.10 1024.70 1024.26 1023.94 1023.46 1023.06 1022.62 1022.18 1021.62 1021.06 1020.50 1019.90 1019.30 1018.86 1018.26 1017.38 1016.62 1015.94 1015.22 1014.58 1013.98 1013.38 1012.86 1012.54 1012.46 1012.62 1012.58 1012.54 1012.46 1012.42 1012.42 1012.38 1012.34
1026.78 1026.70 1026.54 1026.34 1026.14 1025.98 1025.82 1025.54 1025.22 1024.86 1024.38 1023.98 1023.54 1023.14 1022.70 1022.26 1021.78 1021.30 1020.66 1019.98 1019.46 1018.98 1018.26 1017.82 1017.14 1016.42 1015.66 1014.90 1014.26 1013.66 1013.26 1012.94 1012.66 1012.50 1012.50 1012.42 1012.30 1012.14 1011.98 1011.86 1011.74 1011.66
1026.54 1026.42 1026.26 1026.18 1026.02 1025.70 1025.50 1025.26 1024.94 1024.54 1024.06 1023.62 1023.14 1022.78 1022.34 1021.86 1021.38 1020.86 1020.34 1019.66 1019.02 1018.54 1017.94 1017.34 1016.74 1015.98 1015.42 1014.82 1014.14 1013.62 1013.22 1012.90 1012.66 1012.54 1012.46 1012.30 1012.10 1011.94 1011.70 1011.46 1011.30 1011.18
Wind_Speed
6 6 7 7 5 6 6 7 7 8 8 7 8 8 8 8 8 8 8 8 8 7 7 7 7 7 8 8 7 8 7 8 7 7 8 9 9 11 10 11 11 9
7 8 8 7 7 7 7 7 8 8 8 8 7 7 7 8 8 8 8 9 9 9 9 9 9 9 8 7 7 8 8 8 9 7 9 9 8 9 10 10 10 11
7 7 7 8 8 8 8 7 8 8 8 8 8 7 8 7 9 8 8 9 9 10 9 8 8 8 8 8 9 8 8 9 9 8 9 10 9 10 10 9 9 9
7 7 7 8 8 8 8 8 8 7 7 7 8 8 8 8 8 9 8 10 9 9 9 9 9 9 8 8 7 7 8 9 8 8 9 8 8 8 9 8 9 9
8 8 7 8 7 8 8 8 8 8 8 9 8 8 8 8 9 9 9 9 9 9 8 9 9 9 9 9 9 9 8 8 8 8 9 9 8 7 8 8 9 10
8 8 8 7 8 9 9 9 9 9 9 8 8 7 8 8 9 9 10 10 10 11 11 9 10 9 9 9 9 9 9 9 9 9 10 9 9 8 6 7 8 9
9 8 9 8 9 9 9 9 9 9 7 7 7 7 8 9 9 10 10 11 12 12 12 12 12 11 9 9 9 9 8 8 9 9 10 9 9 10 10 9 9 9
10 9 8 8 9 10 10 9 8 7 7 7 8 8 8 9 10 9 10 12 12 13 13 13 13 13 12 10 9 9 10 8 9 9 10 10 9 9 9 7 7 9
10 9 9 10 11 10 9 8 7 7 7 7 7 8 8 8 9 11 12 12 13 13 13 13 13 13 11 10 9 10 10 9 9 9 10 10 9 9 9 8 9 10
10 9 10 10 11 9 9 8 8 7 6 8 8 8 9 9 11 12 12 12 13 13 13 13 13 13 12 10 10 11 10 10 9 9 10 10 10 10 9 9 9 9
11 9 10 10 10 8 9 9 8 8 7 8 8 9 9 9 9 10 12 12 12 13 13 13 13 13 13 13 11 10 11 10 10 10 10 10 10 10 10 11 11 11
9 9 10 10 10 9 9 9 8 8 8 8 8 10 10 9 10 10 11 12 12 13 13 14 13 13 13 13 13 13 11 10 9 9 10 10 10 10 11 10 11 11
9 10 10 9 9 9 9 8 8 9 9 9 9 9 10 10 9 11 11 12 13 13 13 13 13 13 13 13 13 12 11 11 11 11 11 10 9 10 11 11 12 12
9 9 9 9 9 8 9 9 9 9 9 9 9 9 9 9 11 12 12 12 12 12 12 12 12 12 12 12 11 11 11 11 11 11 11 11 11 11 10 11 11 12
8 8 7 8 9 9 9 9 9 10 10 9 9 9 9 9 11 12 13 13 13 12 12 11 11 11 10 10 11 12 12 12 12 12 12 11 11 12 12 12 12 12
8 8 8 9 8 8 9 9 10 10 9 9 9 10 9 9 10 11 12 13 13 12 12 11 11 10 14 22 20 13 10 10 10 11 12 12 12 12 12 13 14 13
8 8 8 8 7 9 9 9 10 9 9 10 10 9 10 10 10 11 11 11 12 12 13 11 10 11 22 23 23 24 16 11 10 11 11 12 13 13 13 13 13 14
8 8 8 8 9 10 10 9 9 10 10 11 10 11 10 9 11 11 11 11 10 11 12 11 11 17 22 23 23 23 20 13 10 11 11 11 12 13 13 13 13 13
8 8 8 8 8 9 9 9 10 10 11 11 11 11 10 11 11 11 11 10 11 12 13 12 11 19 22 24 23 24 23 19 9 10 10 11 12 14 14 13 12 12
8 7 7 8 8 8 9 10 10 10 10 9 10 10 10 11 11 11 11 11 11 12 12 12 12 17 23 23 23 24 24 20 11 10 11 12 13 13 13 14 14 13
8 7 7 7 8 9 10 10 10 10 10 10 9 10 11 10 11 11 10 11 11 11 11 13 12 21 22 24 23 24 24 21 10 10 9 10 11 12 13 14 14 13
7 7 7 7 9 9 10 10 10 10 11 10 9 10 9 9 10 9 11 11 11 12 12 13 13 22 22 23 24 23 25 13 9 9 9 9 9 10 11 11 12 13
7 7 7 9 9 9 10 10 10 11 9 8 10 10 11 10 10 10 10 11 13 12 12 13 13 18 23 24 24 25 19 10 10 9 9 9 9 9 9 10 11 12
6 7 9 9 9 9 10 10 10 10 10 9 10 11 11 10 10 10 11 10 12 12 12 12 13 17 24 23 23 24 18 9 7 7 7 8 8 9 8 9 11 19
6 8 8 8 9 10 10 11 11 10 10 9 8 7 9 9 9 10 11 11 11 12 18 17 13 15 20 21 23 20 16 8 6 3 4 6 7 8 8 8 9 11
7 7 7 7 10 10 10 10 9 9 10 11 9 8 9 9 10 10 11 11 11 11 10 12 12 9 13 23 20 20 21 13 6 5 4 6 6 6 7 8 8 8
Wind_Direction
291 293 290 282 290 305 307 305 299 293 292 290 289 291 290 291 293 291 289 288 283 280 282 282 279 275 275 274 273 278 284 284 280 282 282 281 285 291 288 291 296 292
296 293 296 303 304 304 296 292 292 293 291 287 285 289 289 292 293 296 295 293 291 286 284 280 277 276 276 274 274 273 272 276 280 279 279 282 288 290 290 292 294 294
293 293 294 299 298 293 293 291 289 287 287 288 289 289 291 292 291 287 286 285 284 283 279 276 276 274 271 269 267 263 264 264 268 271 270 273 274 273 280 284 282 288
287 287 292 291 292 293 293 291 287 283 286 289 291 292 291 292 292 292 290 290 287 285 283 281 278 279 275 271 263 260 258 257 257 262 267 267 267 272 272 277 275 277
294 292 287 284 284 289 290 288 288 290 289 287 286 287 290 293 292 289 288 286 284 282 279 273 270 268 268 267 266 268 265 264 256 253 257 261 262 265 271 272 274 275
291 289 290 295 299 296 290 286 286 283 282 283 287 292 291 291 291 290 289 288 286 286 285 282 278 272 267 263 262 260 261 260 257 255 257 260 265 265 269 271 277 276
297 298 298 297 291 286 288 287 284 286 287 292 294 290 293 293 291 290 290 289 288 286 285 284 282 280 272 267 263 263 260 258 259 254 253 255 255 258 260 266 270 276
301 298 293 291 289 287 283 283 285 291 293 294 292 292 295 293 292 292 292 288 287 285 284 283 282 279 278 274 268 264 260 259 259 258 257 255 253 252 253 256 259 263
298 296 297 292 288 287 284 286 291 294 297 294 296 297 293 291 292 292 291 289 285 283 282 281 280 279 275 267 262 260 260 257 254 255 256 257 255 254 254 254 258 260
296 293 293 292 288 285 288 296 297 294 295 295 295 296 294 292 293 292 290 289 287 285 282 279 278 278 276 269 264 258 254 252 250 249 250 250 252 253 252 254 257 260
291 290 289 287 287 292 294 296 295 296 296 297 298 294 292 292 290 290 289 286 285 283 283 281 279 278 277 275 271 266 261 254 248 245 243 243 244 245 245 246 248 254
294 295 293 293 295 294 294 295 296 297 299 297 296 294 293 291 289 287 286 284 281 283 282 281 279 275 273 271 270 267 262 259 255 249 245 243 242 240 241 241 244 247
290 289 290 290 293 296 297 297 297 298 298 296 296 292 292 292 289 287 284 284 284 283 281 280 279 275 272 269 264 260 257 255 253 252 252 249 243 241 238 238 239 241
284 284 285 287 290 293 294 297 298 299 297 296 294 292 290 288 291 291 289 286 284 281 279 278 274 272 269 268 263 257 254 251 248 249 249 247 247 244 241 239 237 238
285 286 288 292 293 293 297 298 299 299 298 297 296 293 292 289 290 291 290 288 285 282 279 273 267 267 265 260 256 255 249 249 247 245 245 246 244 244 241 242 242 241
290 292 293 292 292 298 301 301 300 300 298 297 295 292 289 286 285 285 284 283 284 282 277 274 271 268 268 269 266 258 243 238 235 235 232 236 240 242 241 237 237 239
294 291 292 296 303 303 303 302 302 302 299 296 293 290 287 286 283 283 281 280 279 279 278 272 263 265 270 273 274 272 267 250 232 229 222 225 232 235 241 238 237 235
293 296 298 301 304 302 302 302 302 301 299 297 294 292 290 288 284 281 279 280 280 279 277 274 272 272 276 278 279 279 276 264 244 235 227 220 224 230 234 236 238 235
292 294 298 301 301 301 302 303 301 299 297 296 293 292 292 289 286 285 283 282 280 281 280 278 275 279 283 284 283 283 282 279 257 242 233 229 224 228 230 232 233 235
293 296 298 298 300 302 304 301 298 294 293 292 293 293 290 288 286 284 285 282 281 280 280 279 275 280 284 286 287 286 285 283 266 252 239 231 228 223 227 231 231 233
294 296 295 298 301 303 301 295 294 294 296 298 295 294 295 292 291 290 285 285 284 283 283 283 278 283 287 289 291 290 290 288 272 261 249 240 232 226 223 228 230 231
295 295 295 301 303 300 296 297 299 299 298 297 294 293 290 289 288 285 287 286 285 285 285 283 283 289 294 295 297 298 297 291 272 255 252 247 240 228 224 225 226 228
293 295 300 301 299 296 298 300 302 301 296 295 294 296 296 296 293 291 290 288 288 286 285 286 287 292 297 300 303 304 301 279 262 246 239 241 243 240 232 225 224 225
294 300 298 296 295 297 300 299 298 297 295 297 295 297 294 291 290 288 285 284 286 288 286 289 290 292 298 303 310 316 335 315 280 248 231 241 243 240 237 233 228 225
295 292 290 292 296 298 297 295 295 297 295 288 278 276 280 283 282 283 286 285 284 283 288 289 285 289 297 314 320 337 348 344 336 283 256 253 255 254 246 241 238 243
288 286 290 295 296 294 291 287 287 288 292 294 288 282 284 285 283 284 286 286 285 282 278 283 282 291 313 320 330 345 348 352 348 342 294 273 271 270 264 251 243 234